Stations météo

Publicité
Le Luc, France (7675): Température de l'air & dewpoint: 20.06.2019 19:00:00 - 26.06.2019 19:00:00 (CEST)Le Luc, France (7675): Température de l'air 5cm: 20.06.2019 19:00:00 - 26.06.2019 19:00:00 (CEST)Le Luc, France (7675): Vitesse du vent & gusts: 20.06.2019 19:00:00 - 26.06.2019 19:00:00 (CEST)Le Luc, France (7675): Direction du vent: 20.06.2019 19:00:00 - 26.06.2019 19:00:00 (CEST)Le Luc, France (7675): reduced air pressure: 20.06.2019 19:00:00 - 26.06.2019 19:00:00 (CEST)Le Luc, France (7675): visibility: 20.06.2019 19:00:00 - 26.06.2019 19:00:00 (CEST)Le Luc, France (7675): Ensoleillement: 20.06.2019 19:00:00 - 26.06.2019 19:00:00 (CEST)Le Luc, France (7675): Quantités de précipitations: 20.06.2019 19:00:00 - 26.06.2019 19:00:00 (CEST)
Date & Time tt [°C] td [°C] tt 5cm [°C] ff [km/h] ff [knt] fx [km/h] fx [knt] dd ppp [hPa] vv [km] sd [min] rr [mm]
26.06.2019 19:00:00 34,3 16,6 35,6 14 8 24 13 ESE 1019,5 20 60 0,0
26.06.2019 18:00:00 35,5 16,8 40,3 14 8 26 14 ESE 1019,5 32 60 0,0
26.06.2019 17:00:00 35,9 16,6 41,5 16 8 27 15 ESE 1020,0 35 60 0,0
26.06.2019 16:00:00 36,1 16,8 41,6 15 8 25 14 E 1020,2 35 60 0,0
26.06.2019 15:00:00 35,3 17,1 41,9 13 7 28 15 ESE 1020,7 36 60 0,0
26.06.2019 14:00:00 35,0 17,7 40,8 14 8 28 15 ESE 1021,4 20 60 0,0
26.06.2019 13:00:00 34,5 17,7 40,5 16 9 27 15 E 1021,8 20 60 0,0
26.06.2019 12:00:00 33,9 16,7 39,8 15 8 26 14 ESE 1022,0 41 60 0,0
26.06.2019 11:00:00 33,4 14,9 38,8 14 8 22 12 SE 1022,1 36 60 0,0
26.06.2019 10:00:00 31,1 17,8 33,2 8 4 17 9 ENE 1022,2 18 60 0,0
26.06.2019 09:00:00 26,6 16,5 29,1 2 1 8 4 SSE 1022,3 20 60 0,0
26.06.2019 08:00:00 23,3 15,4 20,8 0 0 4 2 N 1022,2 20 60 0,0
26.06.2019 07:00:00 19,4 14,4 17,5 3 2 4 2 ESE 1022,2 20 40 0,0
26.06.2019 06:00:00 18,8 14,1 16,6 0 0 3 2 N 1021,9 20 0 0,0
26.06.2019 05:00:00 18,6 13,7 16,8 0 0 2 1 N 1021,5 20 0 0,0
26.06.2019 04:00:00 20,1 14,5 18,2 0 0 3 2 N 1021,4 20 0 0,0
26.06.2019 03:00:00 20,2 14,1 18,3 0 0 2 1 N 1021,6 20 0 0,0
26.06.2019 02:00:00 20,9 14,1 18,9 0 0 4 2 N 1021,5 20 0 0,0
26.06.2019 01:00:00 21,9 14,5 19,6 0 0 2 1 N 1021,4 20 0 0,0
26.06.2019 00:00:00 23,2 14,5 21,2 0 0 0 0 N 1021,4 20 0 0,0
25.06.2019 23:00:00 25,6 14,7 23,0 0 0 4 2 N 1021,1 20 0 0,0
25.06.2019 22:00:00 27,9 14,9 25,6 3 2 7 4 WSW 1020,6 20 0 0,0
25.06.2019 21:00:00 30,3 14,0 29,5 7 4 17 9 E 1020,0 20 53 0,0
25.06.2019 20:00:00 31,7 14,8 32,0 13 7 20 11 E 1019,9 20 60 0,0
25.06.2019 19:00:00 32,7 14,8 34,2 13 7 25 13 SE 1019,5 20 60 0,0
25.06.2019 18:00:00 32,8 15,3 37,3 19 11 32 17 SE 1019,5 39 60 0,0
25.06.2019 17:00:00 33,8 14,8 39,1 19 10 31 17 ESE 1019,3 42 60 0,0
25.06.2019 16:00:00 33,5 14,1 39,6 22 12 34 18 SE 1019,7 38 60 0,0
25.06.2019 15:00:00 34,0 14,5 38,8 23 13 38 21 ESE 1019,7 37 60 0,0
25.06.2019 14:00:00 33,5 14,5 38,9 22 12 37 20 E 1019,9 32 60 0,0
25.06.2019 13:00:00 33,1 14,7 37,6 25 13 40 22 E 1019,9 33 60 0,0
25.06.2019 12:00:00 33,3 14,8 36,9 23 13 43 23 E 1019,8 40 60 0,0
25.06.2019 11:00:00 32,8 14,4 36,6 23 13 37 20 E 1019,6 19 60 0,0
25.06.2019 10:00:00 31,5 13,7 33,2 19 11 36 19 ENE 1019,9 20 60 0,0
25.06.2019 09:00:00 26,8 15,2 26,8 5 3 9 5 ENE 1020,1 40 60 0,0
25.06.2019 08:00:00 21,6 13,5 20,7 3 1 5 3 ENE 1020,2 44 60 0,0
25.06.2019 07:00:00 17,8 13,1 15,0 0 0 3 2 N 1020,0 50 35 0,0
25.06.2019 06:00:00 16,6 12,3 14,6 0 0 4 2 N 1019,4 50 0 0,0
25.06.2019 05:00:00 16,9 12,2 14,9 0 0 3 2 N 1019,0 50 0 0,0
25.06.2019 04:00:00 18,0 12,4 15,5 2 1 4 2 W 1018,9 50 0 0,0
25.06.2019 03:00:00 17,8 11,8 16,3 3 2 5 3 ESE 1018,8 50 0 0,0
25.06.2019 02:00:00 20,5 12,5 17,7 3 2 6 3 WSW 1018,7 50 0 0,0
25.06.2019 01:00:00 21,4 12,3 19,2 0 0 6 3 N 1018,7 50 0 0,0
25.06.2019 00:00:00 22,5 12,1 20,6 3 2 5 3 NW 1018,3 50 0 0,0
24.06.2019 23:00:00 24,4 12,0 21,7 0 0 7 4 N 1018,2 50 0 0,0
24.06.2019 22:00:00 25,4 11,6 22,8 0 0 12 6 N 1017,9 50 0 0,0
24.06.2019 21:00:00 27,6 11,2 27,1 9 5 16 9 SE 1017,2 50 21 0,0
24.06.2019 20:00:00 30,1 11,1 30,6 11 6 23 12 ESE 1017,1 47 60 0,0
24.06.2019 19:00:00 31,3 10,6 32,8 14 8 23 13 ESE 1016,9 47 60 0,0
24.06.2019 18:00:00 32,1 10,2 36,5 18 10 29 16 SE 1016,9 42 60 0,0
24.06.2019 17:00:00 32,3 10,3 37,6 19 11 30 16 SE 1016,8 46 60 0,0
24.06.2019 16:00:00 32,7 10,1 38,3 16 9 35 19 ESE 1016,9 42 60 0,0
24.06.2019 15:00:00 32,7 11,8 38,3 18 10 39 21 ESE 1016,9 37 60 0,0
24.06.2019 14:00:00 32,6 10,6 38,1 21 11 36 19 E 1016,9 43 60 0,0
24.06.2019 13:00:00 32,0 14,6 36,8 20 11 34 18 ENE 1017,0 40 60 0,0
24.06.2019 12:00:00 30,9 13,7 36,0 14 7 30 16 E 1017,5 42 60 0,0
24.06.2019 11:00:00 28,2 14,8 30,7 9 5 16 9 ENE 1017,7 32 60 0,0
24.06.2019 10:00:00 25,0 16,4 28,2 4 2 10 5 ENE 1018,1 20 38 0,0
24.06.2019 09:00:00 22,7 16,9 24,9 0 0 5 3 N 1018,2 20 60 0,0
24.06.2019 08:00:00 20,1 15,9 20,2 3 1 5 3 E 1018,3 40 60 0,0
24.06.2019 07:00:00 17,3 15,1 15,3 2 1 6 4 NW 1018,0 28 41 0,0
24.06.2019 06:00:00 16,4 14,6 14,6 2 1 4 2 NW 1017,8 42 0 0,0
24.06.2019 05:00:00 16,1 15,0 14,0 0 0 3 2 N 1017,4 34 0 0,0
24.06.2019 04:00:00 17,0 15,3 14,6 0 0 3 2 N 1017,3 39 0 0,0
24.06.2019 03:00:00 17,2 15,5 15,4 0 0 3 2 N 1017,5 33 0 0,0
24.06.2019 02:00:00 18,1 16,4 16,2 2 1 4 2 NNW 1017,6 31 0 0,0
24.06.2019 01:00:00 19,1 16,7 17,5 2 1 5 3 ENE 1017,3 33 0 0,0
24.06.2019 00:00:00 20,7 18,1 18,7 0 0 9 5 N 1017,2 37 0 0,0
23.06.2019 23:00:00 21,8 18,2 20,1 5 3 13 7 NNW 1016,6 41 0 0,0
23.06.2019 22:00:00 22,6 18,2 21,6 10 5 18 10 N 1015,8 44 0 0,0
23.06.2019 21:00:00 24,2 17,7 23,8 10 5 17 9 NNE 1014,9 42 54 0,0
23.06.2019 20:00:00 26,0 17,9 27,0 11 6 23 12 NNE 1014,4 36 48 0,0
23.06.2019 19:00:00 27,1 18,4 29,4 14 8 29 16 NNE 1013,9 47 15 0,0
23.06.2019 18:00:00 29,7 17,5 33,3 16 9 33 18 NNE 1013,3 41 48 0,0
23.06.2019 17:00:00 31,1 18,1 34,9 20 11 32 17 NE 1013,2 42 29 0,0
23.06.2019 16:00:00 32,3 14,9 38,1 16 8 27 15 N 1013,1 39 52 0,0
23.06.2019 15:00:00 33,9 8,5 40,9 9 5 30 16 WSW 1013,1 38 60 0,0
23.06.2019 14:00:00 32,6 11,7 40,6 7 4 22 12 S 1013,5 41 60 0,0
23.06.2019 13:00:00 31,5 11,8 39,3 10 5 26 14 WNW 1013,9 36 60 0,0
23.06.2019 12:00:00 30,2 12,1 36,3 8 4 21 11 SW 1014,2 40 60 0,0
23.06.2019 11:00:00 28,7 14,1 33,1 7 4 15 8 SW 1014,1 38 60 0,0
23.06.2019 10:00:00 25,5 15,5 28,7 2 1 8 4 ENE 1014,3 38 60 0,0
23.06.2019 09:00:00 22,7 15,3 24,4 2 1 5 3 NE 1014,3 39 60 0,0
23.06.2019 08:00:00 18,6 14,9 19,8 2 1 5 3 ESE 1014,5 31 60 0,0
23.06.2019 07:00:00 16,4 14,6 13,2 0 0 4 2 N 1014,6 20 41 0,0
23.06.2019 06:00:00 14,9 13,6 13,0 0 0 6 3 N 1014,5 33 0 0,0
23.06.2019 05:00:00 15,2 13,2 13,6 0 0 5 3 N 1014,5 20 0 0,0
23.06.2019 04:00:00 15,9 14,4 14,5 4 2 8 4 NE 1014,5 20 0 0,0
23.06.2019 03:00:00 17,3 15,3 15,4 4 2 6 3 WSW 1014,4 34 0 0,0
23.06.2019 02:00:00 17,3 15,3 15,4 2 1 6 4 NNE 1014,5 38 0 0,0
23.06.2019 01:00:00 19,4 16,2 17,4 5 3 8 4 SW 1014,1 36 0 0,0
23.06.2019 00:00:00 20,5 16,7 18,8 2 1 7 4 SSW 1014,2 45 0 0,0
22.06.2019 23:00:00 21,6 16,8 19,8 4 2 8 4 NNW 1014,2 43 0 0,0
22.06.2019 22:00:00 23,2 16,5 21,2 2 1 16 8 ENE 1013,6 49 0 0,0
22.06.2019 21:00:00 24,2 16,7 23,5 10 5 20 11 NE 1012,8 50 5 0,0
22.06.2019 20:00:00 26,0 15,7 26,4 14 8 22 12 NNE 1012,5 48 49 0,0
22.06.2019 19:00:00 27,5 15,8 28,2 15 8 28 15 NNE 1012,1 42 50 0,0
22.06.2019 18:00:00 27,3 16,6 27,2 19 10 36 20 NE 1012,1 37 23 0,0
22.06.2019 17:00:00 26,2 16,2 27,9 29 16 47 25 NE 1012,2 40 37 0,0
22.06.2019 16:00:00 30,9 13,7 32,0 14 7 32 17 SSW 1011,6 33 54 0,0
22.06.2019 15:00:00 29,9 13,6 33,6 14 7 31 17 S 1012,1 35 54 0,0
22.06.2019 14:00:00 27,8 16,4 23,4 8 4 20 11 ESE 1012,9 31 37 0,0
22.06.2019 13:00:00 25,6 19,5 20,6 5 3 31 17 S 1013,6 11 10 1,4
22.06.2019 12:00:00 28,5 14,3 31,1 17 9 30 16 SE 1013,0 40 29 0,0
22.06.2019 11:00:00 27,9 15,2 33,0 5 3 18 10 SSW 1013,1 43 46 0,0
22.06.2019 10:00:00 26,4 16,0 30,7 12 6 17 9 WSW 1013,5 37 60 0,0
22.06.2019 09:00:00 24,0 17,0 26,6 7 4 16 9 WSW 1013,6 32 60 0,0
22.06.2019 08:00:00 20,4 15,2 19,1 3 2 6 4 NW 1013,7 20 60 0,0
22.06.2019 07:00:00 17,0 14,1 14,5 0 0 5 3 N 1013,8 20 41 0,0
22.06.2019 06:00:00 15,4 13,1 14,4 3 2 9 5 NNE 1014,0 29 0 0,0
22.06.2019 05:00:00 16,4 13,5 13,8 3 1 6 3 SE 1014,0 37 0 0,0
22.06.2019 04:00:00 16,1 13,0 14,4 0 0 9 5 N 1014,0 39 0 0,0
22.06.2019 03:00:00 17,9 14,0 16,7 6 3 9 5 S 1014,0 42 0 0,0
22.06.2019 02:00:00 18,0 13,5 17,0 4 2 10 5 WNW 1014,5 47 0 0,0
22.06.2019 01:00:00 18,8 13,4 17,2 0 0 5 3 N 1014,6 47 0 0,0
22.06.2019 00:00:00 20,5 13,9 19,0 3 2 6 4 W 1014,7 43 0 0,0
21.06.2019 23:00:00 21,7 15,3 20,0 4 2 8 4 S 1014,8 48 0 0,0
21.06.2019 22:00:00 22,9 13,4 21,3 6 4 11 6 NE 1014,0 49 0 0,0
21.06.2019 21:00:00 24,9 11,8 24,0 6 4 22 12 E 1013,8 50 17 0,0
21.06.2019 20:00:00 27,2 14,9 27,6 16 9 21 11 ESE 1012,9 40 60 0,0
21.06.2019 19:00:00 28,3 12,6 29,6 11 6 23 12 ESE 1012,8 41 60 0,0
21.06.2019 18:00:00 28,6 12,9 33,8 16 9 29 15 E 1012,8 42 60 0,0
21.06.2019 17:00:00 29,0 12,4 34,1 21 11 30 16 ESE 1012,8 38 60 0,0
21.06.2019 16:00:00 28,5 14,0 34,0 21 12 35 19 E 1013,2 35 60 0,0
21.06.2019 15:00:00 29,0 12,4 34,7 26 14 33 18 ESE 1013,4 38 60 0,0
21.06.2019 14:00:00 29,3 13,5 36,1 18 10 30 16 ESE 1013,5 34 60 0,0
21.06.2019 13:00:00 28,7 15,2 33,9 13 7 24 13 ESE 1014,1 33 54 0,0
21.06.2019 12:00:00 27,7 15,4 33,9 8 4 21 11 NE 1014,3 33 54 0,0
21.06.2019 11:00:00 25,8 15,8 29,5 8 4 20 11 NNE 1014,4 34 60 0,0
21.06.2019 10:00:00 23,7 16,2 26,5 11 6 19 10 ENE 1014,5 33 47 0,0
21.06.2019 09:00:00 22,5 17,2 24,9 7 4 19 10 NE 1014,7 19 46 0,0
21.06.2019 08:00:00 20,3 16,1 18,4 2 1 8 4 N 1014,7 23 52 0,0
21.06.2019 07:00:00 17,2 14,7 14,0 3 1 6 4 SE 1014,4 18 33 0,0
21.06.2019 06:00:00 15,2 12,3 14,1 3 1 5 3 ESE 1014,3 31 0 0,0
21.06.2019 05:00:00 16,0 13,5 14,3 3 2 8 4 NW 1013,7 31 0 0,0
21.06.2019 04:00:00 16,7 13,6 15,7 6 4 10 5 S 1013,7 36 0 0,0
21.06.2019 03:00:00 17,1 13,8 15,5 0 0 8 4 N 1014,1 34 0 0,0
21.06.2019 02:00:00 17,9 13,4 16,3 0 0 7 4 N 1014,0 37 0 0,0
21.06.2019 01:00:00 19,4 15,7 17,9 2 1 4 2 WNW 1014,2 25 0 0,0
21.06.2019 00:00:00 20,3 17,1 18,9 3 2 6 3 WNW 1014,0 20 0 0,0
20.06.2019 23:00:00 20,8 17,0 19,6 4 2 14 8 NE 1013,9 28 0 0,0
20.06.2019 22:00:00 21,7 16,2 20,7 5 3 18 10 NNW 1013,7 29 0 0,0
20.06.2019 21:00:00 23,2 16,0 22,6 8 4 23 12 NNE 1012,5 38 0 0,0
20.06.2019 20:00:00 25,2 15,8 25,9 13 7 22 12 NNE 1012,0 36 24 0,0
20.06.2019 19:00:00 29,9 9,4 31,2 8 4 28 15 SW 1011,0 43 49 0,0

tt = Température de l'air
td = dewpoint
tt 5cm = Température de l'air 5cm
ff = Vitesse du vent
fx = gusts
dd = Direction du vent
ppp = reduced air pressure
vv = visibility
sd = Ensoleillement
rr = Quantités de précipitations

stations d'obs. à proximité